ISS DEB (SPX-26 IPA FSE)

基本信息
目录编号:
55448
目录名称:
ISS DEB (SPX-26 IPA FSE)
国际标识:
1998-067VB
轨道中心:
EARTH
物体状态:
已陨落(2023-12-24)
发射日期:
1998-11-20 UTC
轨道信息
数据来源: 国际轨道数据
星历时间: 2023-12-24T06:31:26+0800
半长轴: 6536.32km
偏心率: 0.0004554
轨道倾角: 51.610°
近地点辐角: 338.316°
升交点赤经: 65.103°
平近点角: 176.021°
近地点: 155.208km
远地点: 161.162km
周期: 87.652分钟
每日圈数: 16.428688
详细信息
发射场:
TTMTR
轨道高度:
LEO
数据来源:
AOE Integration Group
参考系:
TEME
时间系统:
UTC
历元类型:
SGP4
2D轨道图
3D轨道图
轨道高度分析图
轨道倾角分析图
轨道综合分析图
查看轨道综合分析图